RAM470 GMMN-GMTT

Flight info

Callsign RAM470
Flight time 0h 32m
Altitude 18000
Route TOLSI G5 VAGNO
Aircraft B738/M-SDE2E3FGHIRWXY/LB1

Departure

Time 2026-04-20 22:31
Airport Mohammed V International Airport (GMMN)

Arrival

Time 2026-04-20 23:04
Airport Tangier Ibn Battuta Airport (GMTT)
Time Latitude Longitude Altitude Speed Heading
2026-04-20 22:17 33.37149 -7.58356 652 ft 0 kts 120°
2026-04-20 22:25 33.37147 -7.58352 652 ft 1 kts 120°
2026-04-20 22:25 33.37137 -7.58332 653 ft 5 kts 120°
2026-04-20 22:25 33.37108 -7.58281 652 ft 10 kts 136°
2026-04-20 22:26 33.37023 -7.58245 652 ft 15 kts 164°
2026-04-20 22:26 33.36935 -7.58275 652 ft 15 kts 248°
2026-04-20 22:26 33.36909 -7.58392 653 ft 14 kts 255°
2026-04-20 22:27 33.36755 -7.58430 653 ft 13 kts 164°
2026-04-20 22:27 33.36661 -7.58399 652 ft 16 kts 165°
2026-04-20 22:27 33.36546 -7.58360 654 ft 19 kts 163°
2026-04-20 22:27 33.36408 -7.58312 652 ft 22 kts 164°
2026-04-20 22:28 33.36250 -7.58258 651 ft 25 kts 163°
2026-04-20 22:28 33.36089 -7.58202 651 ft 23 kts 164°
2026-04-20 22:28 33.35936 -7.58150 651 ft 22 kts 164°
2026-04-20 22:28 33.35790 -7.58100 651 ft 22 kts 164°
2026-04-20 22:29 33.35645 -7.58050 651 ft 21 kts 164°
2026-04-20 22:29 33.35508 -7.58004 651 ft 20 kts 164°
2026-04-20 22:29 33.35375 -7.57959 652 ft 19 kts 163°
2026-04-20 22:29 33.35260 -7.57990 652 ft 19 kts 242°
2026-04-20 22:30 33.35222 -7.58135 654 ft 18 kts 253°
2026-04-20 22:30 33.35228 -7.58265 653 ft 17 kts 333°
2026-04-20 22:30 33.35349 -7.58306 651 ft 22 kts 343°
2026-04-20 22:30 33.35751 -7.58445 644 ft 101 kts 344°
2026-04-20 22:31 33.36665 -7.58760 702 ft 163 kts 341°
2026-04-20 22:31 33.37789 -7.59139 1459 ft 170 kts 345°
2026-04-20 22:31 33.38925 -7.59512 2413 ft 167 kts 351°
2026-04-20 22:31 33.40079 -7.59711 3240 ft 167 kts
2026-04-20 22:32 33.41257 -7.59665 3989 ft 174 kts
2026-04-20 22:32 33.42543 -7.59391 4376 ft 204 kts 16°
2026-04-20 22:32 33.43959 -7.58813 4601 ft 230 kts 25°
2026-04-20 22:32 33.45412 -7.57827 5004 ft 246 kts 37°
2026-04-20 22:33 33.46720 -7.56442 5660 ft 254 kts 49°
2026-04-20 22:33 33.47846 -7.54806 6580 ft 255 kts 53°
2026-04-20 22:33 33.48950 -7.53115 7372 ft 261 kts 53°
2026-04-20 22:33 33.50090 -7.51386 8155 ft 268 kts 53°
2026-04-20 22:34 33.51271 -7.49632 8968 ft 273 kts 53°
2026-04-20 22:34 33.52488 -7.47849 9772 ft 280 kts 52°
2026-04-20 22:34 33.53737 -7.46031 10529 ft 284 kts 52°
2026-04-20 22:34 33.55006 -7.44189 11324 ft 288 kts 52°
2026-04-20 22:35 33.56432 -7.42527 12041 ft 296 kts 32°
2026-04-20 22:35 33.58378 -7.41581 12492 ft 314 kts 12°
2026-04-20 22:35 33.60619 -7.41093 12711 ft 340 kts
2026-04-20 22:35 33.63042 -7.40662 12916 ft 364 kts
2026-04-20 22:36 33.65608 -7.40221 13402 ft 377 kts
2026-04-20 22:36 33.68225 -7.39761 14081 ft 382 kts
2026-04-20 22:36 33.70865 -7.39281 14838 ft 385 kts
2026-04-20 22:36 33.73531 -7.38784 15579 ft 388 kts
2026-04-20 22:37 33.76216 -7.38276 16254 ft 393 kts
2026-04-20 22:37 33.78933 -7.37756 16915 ft 398 kts
2026-04-20 22:37 33.81680 -7.37228 17585 ft 403 kts
2026-04-20 22:37 33.84459 -7.36693 17823 ft 404 kts
2026-04-20 22:38 33.87232 -7.36158 17824 ft 404 kts
2026-04-20 22:38 33.90015 -7.35620 17837 ft 405 kts
2026-04-20 22:38 33.92800 -7.35082 17834 ft 405 kts
2026-04-20 22:38 33.95582 -7.34544 17829 ft 405 kts
2026-04-20 22:39 33.98366 -7.34006 17824 ft 404 kts
2026-04-20 22:39 34.01108 -7.33476 17824 ft 404 kts
2026-04-20 22:39 34.03888 -7.32938 17821 ft 405 kts
2026-04-20 22:39 34.06674 -7.32399 17824 ft 405 kts
2026-04-20 22:40 34.09454 -7.31860 17825 ft 405 kts
2026-04-20 22:40 34.12218 -7.31171 17809 ft 408 kts 18°
2026-04-20 22:40 34.14778 -7.29689 17851 ft 409 kts 26°
2026-04-20 22:40 34.17298 -7.28086 17825 ft 410 kts 26°
2026-04-20 22:41 34.19823 -7.26484 17826 ft 410 kts 26°
2026-04-20 22:41 34.22353 -7.24892 17824 ft 410 kts 26°
2026-04-20 22:41 34.24897 -7.23306 17824 ft 410 kts 26°
2026-04-20 22:41 34.27441 -7.21729 17826 ft 411 kts 25°
2026-04-20 22:42 34.29981 -7.20159 17828 ft 410 kts 25°
2026-04-20 22:42 34.32522 -7.18591 17822 ft 410 kts 25°
2026-04-20 22:42 34.35059 -7.17024 17821 ft 409 kts 25°
2026-04-20 22:42 34.37560 -7.15480 17821 ft 408 kts 25°
2026-04-20 22:43 34.40088 -7.13917 17824 ft 408 kts 25°
2026-04-20 22:43 34.42613 -7.12354 17826 ft 407 kts 25°
2026-04-20 22:43 34.45135 -7.10793 17824 ft 407 kts 25°
2026-04-20 22:43 34.47658 -7.09229 17825 ft 407 kts 25°
2026-04-20 22:44 34.50183 -7.07663 17829 ft 407 kts 25°
2026-04-20 22:44 34.51884 -7.06607 17827 ft 407 kts 25°
2026-04-20 22:44 34.54371 -7.05063 17824 ft 407 kts 25°
2026-04-20 22:44 34.56900 -7.03492 17826 ft 407 kts 25°
2026-04-20 22:45 34.59421 -7.01925 17828 ft 407 kts 25°
2026-04-20 22:45 34.61952 -7.00358 17827 ft 407 kts 25°
2026-04-20 22:45 34.64484 -6.98806 17821 ft 407 kts 25°
2026-04-20 22:45 34.67018 -6.97259 17822 ft 407 kts 25°
2026-04-20 22:46 34.69550 -6.95712 17823 ft 407 kts 25°
2026-04-20 22:46 34.72083 -6.94163 17822 ft 407 kts 25°
2026-04-20 22:46 34.74613 -6.92614 17822 ft 407 kts 25°
2026-04-20 22:46 34.77143 -6.91062 17824 ft 407 kts 25°
2026-04-20 22:47 34.79677 -6.89505 17827 ft 408 kts 25°
2026-04-20 22:47 34.82203 -6.87952 17834 ft 407 kts 25°
2026-04-20 22:47 34.84731 -6.86397 17826 ft 407 kts 25°
2026-04-20 22:47 34.87226 -6.84861 17822 ft 406 kts 25°
2026-04-20 22:48 34.89745 -6.83308 17813 ft 405 kts 25°
2026-04-20 22:48 34.92256 -6.81760 17815 ft 404 kts 25°
2026-04-20 22:48 34.94760 -6.80215 17815 ft 403 kts 25°
2026-04-20 22:48 34.97255 -6.78674 17823 ft 402 kts 25°
2026-04-20 22:49 34.99750 -6.77133 17824 ft 401 kts 25°
2026-04-20 22:49 35.02237 -6.75596 17825 ft 401 kts 25°
2026-04-20 22:49 35.04726 -6.74056 17824 ft 400 kts 25°
2026-04-20 22:49 35.07188 -6.72531 17616 ft 393 kts 25°
2026-04-20 22:50 35.09620 -6.71024 17128 ft 391 kts 25°
2026-04-20 22:50 35.12048 -6.69519 16502 ft 392 kts 25°
2026-04-20 22:50 35.14500 -6.67999 15705 ft 397 kts 26°
2026-04-20 22:50 35.16968 -6.66468 15095 ft 397 kts 26°
2026-04-20 22:51 35.19428 -6.64939 14608 ft 393 kts 26°
2026-04-20 22:51 35.21855 -6.63430 14145 ft 389 kts 26°
2026-04-20 22:51 35.24260 -6.61934 13662 ft 386 kts 26°
2026-04-20 22:51 35.26647 -6.60448 13121 ft 384 kts 26°
2026-04-20 22:52 35.29018 -6.58971 12627 ft 380 kts 27°
2026-04-20 22:52 35.31335 -6.57526 12148 ft 377 kts 27°
2026-04-20 22:52 35.33660 -6.56076 11640 ft 374 kts 27°
2026-04-20 22:52 35.35970 -6.54634 11146 ft 371 kts 27°
2026-04-20 22:53 35.38261 -6.53203 10668 ft 368 kts 27°
2026-04-20 22:53 35.40539 -6.51779 10180 ft 366 kts 27°
2026-04-20 22:53 35.42794 -6.50370 9773 ft 361 kts 27°
2026-04-20 22:53 35.45035 -6.48965 9199 ft 362 kts 27°
2026-04-20 22:54 35.47248 -6.47538 8757 ft 357 kts 28°
2026-04-20 22:54 35.49439 -6.46105 8180 ft 357 kts 28°
2026-04-20 22:54 35.51605 -6.44684 7827 ft 349 kts 28°
2026-04-20 22:54 35.53743 -6.43281 7339 ft 347 kts 28°
2026-04-20 22:55 35.55866 -6.41890 6942 ft 343 kts 28°
2026-04-20 22:55 35.57954 -6.40523 6539 ft 338 kts 28°
2026-04-20 22:55 35.60004 -6.39181 6025 ft 338 kts 28°
2026-04-20 22:55 35.62074 -6.37825 5599 ft 334 kts 28°
2026-04-20 22:56 35.64127 -6.36480 5117 ft 333 kts 28°
2026-04-20 22:56 35.66164 -6.35145 4669 ft 331 kts 28°
2026-04-20 22:56 35.68187 -6.33819 4207 ft 328 kts 28°
2026-04-20 22:56 35.70181 -6.32511 3864 ft 317 kts 28°
2026-04-20 22:57 35.72031 -6.31218 3723 ft 295 kts 38°
2026-04-20 22:57 35.73297 -6.29372 3594 ft 274 kts 65°
2026-04-20 22:57 35.73894 -6.27237 3461 ft 256 kts 82°
2026-04-20 22:57 35.73986 -6.25115 3374 ft 242 kts 91°
2026-04-20 22:58 35.73960 -6.23087 3329 ft 230 kts 92°
2026-04-20 22:58 35.73929 -6.21200 3246 ft 217 kts 92°
2026-04-20 22:58 35.73900 -6.19391 3145 ft 205 kts 92°
2026-04-20 22:58 35.73875 -6.17688 3064 ft 192 kts 91°
2026-04-20 22:59 35.73854 -6.16094 2977 ft 180 kts 91°
2026-04-20 22:59 35.73835 -6.14568 2752 ft 176 kts 92°
2026-04-20 22:59 35.73817 -6.13075 2530 ft 171 kts 92°
2026-04-20 22:59 35.73800 -6.11683 2538 ft 160 kts 91°
2026-04-20 23:00 35.73783 -6.10279 2559 ft 163 kts 92°
2026-04-20 23:00 35.73766 -6.08910 2401 ft 162 kts 92°
2026-04-20 23:00 35.73743 -6.07571 2197 ft 153 kts 92°
2026-04-20 23:00 35.73721 -6.06322 1970 ft 142 kts 94°
2026-04-20 23:01 35.73696 -6.05114 1819 ft 141 kts 92°
2026-04-20 23:01 35.73672 -6.03903 1639 ft 141 kts 92°
2026-04-20 23:01 35.73648 -6.02712 1437 ft 137 kts 93°
2026-04-20 23:01 35.73625 -6.01527 1249 ft 138 kts 92°
2026-04-20 23:02 35.73601 -6.00365 1071 ft 135 kts 92°
2026-04-20 23:02 35.73577 -5.99205 897 ft 135 kts 90°
2026-04-20 23:02 35.73588 -5.98054 704 ft 137 kts 85°
2026-04-20 23:02 35.73622 -5.96892 566 ft 138 kts 94°
2026-04-20 23:03 35.73495 -5.95744 365 ft 135 kts 91°
2026-04-20 23:03 35.73402 -5.94594 217 ft 135 kts 94°
2026-04-20 23:03 35.73290 -5.93469 61 ft 133 kts 95°
2026-04-20 23:03 35.73196 -5.92433 60 ft 70 kts 96°
2026-04-20 23:04 35.73158 -5.92004 54 ft 34 kts 97°
2026-04-20 23:04 35.73109 -5.91788 54 ft 25 kts 125°
2026-04-20 23:04 35.72953 -5.91726 59 ft 24 kts 176°
2026-04-20 23:04 35.72793 -5.91710 59 ft 23 kts 175°
2026-04-20 23:05 35.72639 -5.91697 59 ft 21 kts 177°
2026-04-20 23:05 35.72493 -5.91675 54 ft 21 kts 159°
2026-04-20 23:05 35.72427 -5.91533 55 ft 20 kts 89°
2026-04-20 23:05 35.72437 -5.91364 56 ft 18 kts 85°
2026-04-20 23:06 35.72451 -5.91258 59 ft 11 kts 51°
2026-04-20 23:06 35.72509 -5.91248 59 ft 1 kts 355°
2026-04-20 23:06 35.72516 -5.91249 59 ft 1 kts 356°
2026-04-20 23:06 35.72521 -5.91249 59 ft 0 kts 356°